TimeMST,TemperatureF,Dew PointF,Humidity,Sea Level PressureIn,VisibilityMPH,Wind Direction,Wind SpeedMPH,Gust SpeedMPH,PrecipitationIn,Events,Conditions,WindDirDegrees,DateUTC
12:53 AM,57.9,48.0,70,29.89,10.0,SSW,8.1,-,N/A,,Mostly Cloudy,200,2013-01-28 07:53:00
1:53 AM,57.0,46.9,69,29.89,10.0,SSW,11.5,-,N/A,,Partly Cloudy,210,2013-01-28 08:53:00
2:53 AM,57.0,46.9,69,29.89,10.0,SSW,9.2,-,N/A,,Mostly Cloudy,200,2013-01-28 09:53:00
3:53 AM,55.9,45.0,67,29.88,10.0,SSW,11.5,-,N/A,,Partly Cloudy,210,2013-01-28 10:53:00
4:53 AM,55.0,45.0,69,29.88,10.0,SSW,9.2,-,N/A,,Overcast,200,2013-01-28 11:53:00
5:53 AM,55.0,45.0,69,29.88,10.0,SSW,6.9,-,N/A,,Overcast,210,2013-01-28 12:53:00
6:53 AM,54.0,45.0,72,29.90,10.0,SSW,11.5,-,N/A,,Partly Cloudy,200,2013-01-28 13:53:00
7:53 AM,53.1,45.0,74,29.91,10.0,WSW,10.4,-,N/A,,Clear,240,2013-01-28 14:53:00
8:53 AM,54.0,45.0,72,29.92,10.0,West,5.8,-,N/A,,Overcast,270,2013-01-28 15:53:00
9:53 AM,54.0,44.1,69,29.93,10.0,WSW,13.8,23.0,0.00,,Overcast,250,2013-01-28 16:53:00
10:53 AM,52.0,44.1,74,29.95,3.0,SSW,15.0,31.1,0.02,Rain,Rain,210,2013-01-28 17:53:00
11:53 AM,52.0,44.1,74,29.95,10.0,NW,10.4,-,0.00,,Scattered Clouds,310,2013-01-28 18:53:00
12:53 PM,51.1,41.0,68,29.94,6.0,West,17.3,27.6,0.00,Rain,Light Rain,280,2013-01-28 19:53:00
1:00 PM,48.9,43.0,80,29.99,4.0,WNW,13.8,31.1,0.02,Rain,Rain,290,2013-01-28 20:00:00
1:53 PM,48.9,42.1,77,29.92,10.0,NW,13.8,23.0,0.02,,Overcast,310,2013-01-28 20:53:00
2:53 PM,46.9,39.0,74,29.94,7.0,NW,16.1,24.2,0.01,Rain,Light Rain,310,2013-01-28 21:53:00
3:53 PM,48.0,36.0,63,29.94,10.0,NW,10.4,-,0.00,Rain,Light Rain,320,2013-01-28 22:53:00
4:53 PM,48.9,33.1,54,29.92,10.0,NW,10.4,-,0.00,,Scattered Clouds,310,2013-01-28 23:53:00
5:53 PM,48.9,32.0,52,29.93,10.0,NW,9.2,-,N/A,,Overcast,320,2013-01-29 00:53:00
6:53 PM,48.0,30.0,50,29.95,10.0,WNW,11.5,-,N/A,,Overcast,300,2013-01-29 01:53:00
7:53 PM,46.9,30.0,52,29.97,10.0,WNW,5.8,-,N/A,,Overcast,300,2013-01-29 02:53:00
8:53 PM,46.0,35.1,66,29.97,10.0,Calm,Calm,-,N/A,,Overcast,0,2013-01-29 03:53:00
9:53 PM,46.9,32.0,56,29.97,10.0,West,6.9,-,N/A,,Overcast,280,2013-01-29 04:53:00
10:53 PM,44.1,32.0,63,30.00,10.0,NW,15.0,-,N/A,,Overcast,320,2013-01-29 05:53:00
11:53 PM,41.0,35.1,79,30.01,10.0,SW,6.9,-,0.01,,Overcast,230,2013-01-29 06:53:00